Flag for Germany Past Weather in Neuburg an der Donau, Bavaria, Germany — Yesterday and Last 2 Weeks

Now
72 °F

Passing clouds.


Feels Like: 75 °F
Forecast: 61 / 70 °F
Wind: 3 mph from East

Location: Neuburg / Donau

Current Time: Jul 30, 2016 at 10:58:36 PM

Latest Report: Jul 30, 2016 at 10:20 PM


Visibility: N/A

Pressure: 29.95 "Hg

Humidity: 69%

Dew Point: 61 °F

Location of Neuburg an der DonauLocation

Past Weather in Neuburg an der Donau — Graph

°F

Neuburg an der Donau Temperature Yesterday

Maximum temperature yesterday: 79 °F (at 5:20 PM)
Minimum temperature yesterday: 61 °F (at 4:20 AM)
Average temperature yesterday: 69 °F

High & Low Weather Summary for the Past Weeks

 TemperatureHumidityPressure
High86 °F (Jul 20, 5:20 PM)100% (Jul 19, 4:20 AM)30.33 "Hg (Jul 19, 4:20 AM)
Low48 °F (Jul 16, 1:20 AM)31% (Jul 19, 5:20 PM)29.92 "Hg (Jul 30, 4:20 PM)
Average69 °F73%30.09 "Hg
* Reported Jul 15 9:20 PM — Jul 30 9:20 PM, Neuburg an der Donau, Weather by CustomWeather, © 2016

Note: Actual official high and low records may vary slightly from our data, if they occured in-between our weather recording intervals... More about our weather records

Advertising

Neuburg an der Donau Weather History for the Previous 24 Hours

Scroll right to see more
 ConditionsComfort  
Time TempWeatherWind HumidityBarometerVisibility
9:20 PM
Sat, Jul 30
75 °FScattered clouds.3 mph61%29.92 "HgN/A
8:20 PM77 °FScattered clouds.5 mph57%29.92 "HgN/A
7:20 PM81 °FScattered clouds.7 mph51%29.92 "HgN/A
6:20 PM82 °FScattered clouds.5 mph48%29.92 "HgN/A
5:20 PM82 °FThunderstorms. Passing clouds.8 mph48%29.92 "HgN/A
4:20 PM82 °FPassing clouds.6 mph45%29.92 "HgN/A
3:20 PM82 °FPassing clouds.7 mph45%29.95 "HgN/A
2:20 PM81 °FScattered clouds.10 mph48%29.95 "HgN/A
1:20 PM81 °FPassing clouds.9 mph45%29.95 "HgN/A
12:20 PM79 °FPassing clouds.6 mph51%29.98 "HgN/A
11:20 AM77 °FPassing clouds.7 mph54%29.98 "HgN/A
10:20 AM73 °FPassing clouds.7 mph65%30.01 "HgN/A
9:20 AM70 °FPassing clouds.2 mph69%30.01 "HgN/A
8:20 AM66 °FPassing clouds.2 mph83%30.01 "HgN/A
7:20 AM61 °FPassing clouds.No wind88%30.01 "HgN/A
6:20 AM57 °FFog.2 mph94%30.01 "HgN/A
5:20 AM57 °FPassing clouds.2 mph100%30.01 "HgN/A
4:20 AM59 °FPassing clouds.1 mph94%30.01 "HgN/A
3:20 AM59 °FPassing clouds.1 mph94%30.01 "HgN/A
2:20 AM61 °FPassing clouds.1 mph88%30.01 "HgN/A
1:20 AM63 °FPassing clouds.No wind88%30.01 "HgN/A
12:20 AM63 °FPassing clouds.No wind88%30.01 "HgN/A
11:20 PM
Fri, Jul 29
66 °FPassing clouds.1 mph78%29.98 "HgN/A
10:20 PM66 °FPassing clouds.1 mph83%29.98 "HgN/A
Weather by CustomWeather, © 2016

See weather overviewHow to use our weather pages